Flag for Indonesia Weather past 2 weeks in Medan, North Sumatra, Indonesia

Now
79 °F

Passing clouds.


Feels Like: 83 °F
Forecast: 75 / 86 °F
Wind: No wind

Location: Medan / Polonia

Current Time: Dec 28, 2014 at 1:47:00 AM

Latest Report: Dec 28, 2014 at 1:00 AM


Visibility: 2 mi

Pressure: 29.83 "Hg

Humidity: 100%

Dew point: 79 °F

Location of MedanLocation

Historic Weather in Medan — Graph

°F

Medan temperature yesterday

Maximum temperature yesterday: 88 °F (at 1:30 PM)
Minimum temperature yesterday: 75 °F (at 2:00 AM)
Average temperature yesterday: 80 °F

Past Weeks' High & Low Weather Summary

 TemperatureHumidityPressure
High90 °F (Dec 13, 11:30 AM)100% (Dec 15, 12:30 AM)29.92 "Hg (Dec 15, 12:30 AM)
Low73 °F (Dec 17, 2:30 AM)66% (Dec 13, 10:30 AM)29.71 "Hg (Dec 20, 4:00 PM)
Average80 °F91%29.81 "Hg
* Reported Midnight between Dec 12 and Dec 13 — Dec 28 12:30 AM, Medan, Weather by CustomWeather, © 2014

Note: Actual official high and low records may vary slightly from our data, if they occured in-between our weather recording intervals... More about our weather records

Advertising

Medan weather history for previous 24 hours

 ConditionsComfort  
Time TempWeatherWind HumidityBarometerVisibility
12:30 AM
Dec 28
79 °FPassing clouds.No wind100%29.86 "Hg2 mi
12:00 AM79 °FPassing clouds.No wind100%29.86 "Hg2 mi
10:30 PM
Dec 27
79 °FPassing clouds.3 mph100%29.86 "Hg2 mi
10:00 PM81 °FPassing clouds.No wind94%29.86 "Hg2 mi
9:00 PM81 °FPassing clouds.7 mph94%29.83 "Hg3 mi
8:30 PM81 °FPassing clouds.3 mph94%29.83 "Hg3 mi
8:00 PM81 °FPassing clouds.5 mph94%29.83 "Hg3 mi
7:30 PM81 °FPassing clouds.6 mph89%29.80 "Hg3 mi
7:00 PM82 °FPassing clouds.6 mph84%29.80 "Hg3 mi
6:30 PM82 °FPassing clouds.7 mph84%29.77 "Hg3 mi
6:00 PM82 °FScattered clouds.6 mph84%29.77 "Hg4 mi
5:30 PM84 °FScattered clouds.6 mph84%29.74 "Hg4 mi
5:00 PM84 °FScattered clouds.5 mph79%29.74 "Hg4 mi
4:30 PM86 °FScattered clouds.5 mph70%29.74 "Hg4 mi
4:00 PM86 °FScattered clouds.3 mph70%29.74 "Hg4 mi
3:30 PM86 °FScattered clouds.5 mph75%29.74 "Hg4 mi
3:00 PM86 °FPartly sunny.6 mph75%29.74 "Hg4 mi
2:30 PM86 °FScattered clouds.3 mph75%29.77 "Hg4 mi
2:00 PM88 °FPartly sunny.5 mph70%29.77 "Hg3 mi
1:30 PM88 °FScattered clouds.3 mph66%29.80 "Hg3 mi
1:00 PM86 °FScattered clouds.3 mph70%29.80 "Hg4 mi
12:30 PM84 °FScattered clouds.3 mph79%29.83 "Hg4 mi
12:00 PM84 °FScattered clouds.2 mph79%29.83 "Hg4 mi
11:30 AM82 °FScattered clouds.2 mph84%29.86 "Hg4 mi
11:00 AM82 °FScattered clouds.5 mph84%29.86 "Hg3 mi
10:00 AM79 °FScattered clouds.2 mph94%29.86 "Hg3 mi
9:30 AM77 °FScattered clouds.2 mph94%29.86 "Hg3 mi
9:00 AM77 °FScattered clouds.No wind94%29.83 "Hg3 mi
8:30 AM77 °FScattered clouds.No wind94%29.83 "Hg3 mi
8:00 AM75 °FScattered clouds.No wind94%29.80 "Hg3 mi
7:30 AM75 °FScattered clouds.No wind94%29.80 "Hg3 mi
7:00 AM75 °FPassing clouds.3 mph100%29.77 "Hg3 mi
6:30 AM75 °FFog.No wind100%29.77 "Hg3 mi
5:30 AM75 °FFog.3 mph100%29.74 "Hg3 mi
5:00 AM75 °FFog.No wind100%29.74 "Hg3 mi
4:30 AM75 °FPassing clouds.3 mph100%29.74 "Hg3 mi
4:00 AM75 °FFog.2 mph100%29.74 "Hg2 mi
3:30 AM75 °FFog.2 mph100%29.74 "Hg3 mi
3:00 AM75 °FFog.2 mph100%29.74 "Hg2 mi
2:00 AM75 °FFog.2 mph100%29.77 "Hg2 mi
1:30 AM77 °FFog.2 mph100%29.77 "Hg2 mi
1:00 AM77 °FFog.No wind100%29.80 "Hg2 mi
Weather by CustomWeather, © 2014

See weather overviewHow to use our weather pages